Location: High Meadows Obseravatory
(40.7417°N, 111.5713°W)
Time: 13:30:22
(UTC-07:00)

Envisat - Visible Passes

Search period start: 30 November 2022 00:00
Search period end: 10 December 2022 00:00
Orbit: 763 x 765 km, 98.2° (Epoch: 30 November)

Date Brightness Start Highest point End Pass type
(mag) Time Alt. Az. Time Alt. Az. Time Alt. Az.
30 Nov 5.7 04:16:39 10° NNE 04:16:44 10° NNE 04:16:44 10° NNE visible
30 Nov 5.0 05:56:33 10° NNW 05:56:55 11° NNW 05:56:55 11° NNW visible
01 Dec 5.1 05:18:45 10° N 05:19:17 13° N 05:19:17 13° N visible
02 Dec 5.5 04:41:33 10° NNE 04:41:41 11° NNE 04:41:41 11° NNE visible
05 Dec 6.4 17:27:29 10° W 17:28:18 10° W 17:29:07 10° WNW visible
